AC4VM Weather Reports


Display with metric or nautical units.
time (UTC)temp
F
wind
direction
speed
MPH
gust
MPH
rain 1hr
in
rain 24hr
in
rain mn
in
humidity
%
barometer
mb
20260505210022 75 213 2.0 10.0 0.00 0.00 0.00 49 1009.0
20260505204519 74 237 2.0 9.0 0.00 0.00 0.00 45 1009.3
20260505203025 75 241 1.0 4.0 0.00 0.00 0.00 44 1009.6
20260505201516 76 241 2.0 11.0 0.00 0.00 0.00 41 1009.9
20260505200015 75 241 2.0 8.0 0.00 0.00 0.00 47 1009.9
20260505194512 74 211 1.0 5.0 0.00 0.00 0.00 44 1010.2
20260505193010 73 223 1.0 7.0 0.00 0.00 0.00 44 1010.2
20260505191509 73 239 2.0 8.0 0.00 0.00 0.00 45 1010.8
20260505190007 73 285 1.0 10.0 0.00 0.00 0.00 43 1010.8
20260505184504 73 234 3.0 6.0 0.00 0.00 0.00 45 1011.0
20260505183004 73 253 1.0 8.0 0.00 0.00 0.00 45 1011.4
20260505181502 73 263 2.0 12.0 0.00 0.00 0.00 42 1011.8
20260505180000 73 237 3.0 9.0 0.00 0.00 0.00 46 1012.1
20260505174600 73 241 1.0 7.0 0.00 0.00 0.00 47 1012.1
20260505173101 73 242 3.0 14.0 0.00 0.00 0.00 47 1012.4
20260505171559 73 280 4.0 11.0 0.00 0.00 0.00 48 1012.5
20260505170057 72 244 3.0 12.0 0.00 0.00 0.00 49 1012.7
20260505164557 72 243 1.0 12.0 0.00 0.00 0.00 50 1012.9
20260505163055 72 239 3.0 9.0 0.00 0.00 0.00 54 1013.0
20260505161556 72 114 1.0 13.0 0.00 0.00 0.00 54 1013.1
20260505153101 70 150 3.0 5.0 0.00 0.00 0.00 56 1013.1
20260505151547 69 312 0.0 4.0 0.00 0.00 0.00 60 1013.0
20260505124523 58 0.0 0.0 0.00 0.00 0.00 77 1013.0
20260505123021 56 214 0.0 3.0 0.00 0.00 0.00 81 1013.0
20260505121520 54 273 0.0 0.0 0.00 0.00 0.00 84 1012.7
20260505120034 53 273 0.0 1.0 0.00 0.00 0.00 86 1012.8
20260505114519 50 274 0.0 0.0 0.00 0.00 0.00 89 1012.8
20260505113016 49 274 0.0 0.0 0.00 0.00 0.00 89 1012.5
20260505111524 48 274 0.0 1.0 0.00 0.00 0.00 90 1012.2
20260505101509 48 266 0.0 2.0 0.00 0.00 0.00 89 1012.0
20260505100007 49 262 1.0 5.0 0.00 0.00 0.00 88 1012.1
20260505094506 49 2 0.0 2.0 0.00 0.00 0.00 87 1011.9
20260505093004 50 280 0.0 2.0 0.00 0.00 0.00 87 1012.0
20260505091621 50 280 0.0 2.0 0.00 0.00 0.00 85 1011.9
20260505090122 51 280 1.0 3.0 0.00 0.00 0.00 85 1011.9
20260505084614 51 280 0.0 2.0 0.00 0.00 0.00 85 1011.8
20260505083108 51 280 0.0 1.0 0.00 0.00 0.00 84 1011.8
20260505081601 52 280 1.0 3.0 0.00 0.00 0.00 82 1011.4
20260505080059 53 255 1.0 4.0 0.00 0.00 0.00 81 1011.4
20260505074547 54 244 0.0 0.0 0.00 0.00 0.00 78 1011.3
20260505073052 55 244 0.0 0.0 0.00 0.00 0.00 76 1011.3
20260505071547 56 243 0.0 1.0 0.00 0.00 0.00 74 1011.3
20260505070044 58 243 0.0 0.0 0.00 0.00 0.00 70 1011.5
20260505064537 58 243 0.0 0.0 0.00 0.00 0.00 69 1011.5
20260505063040 59 243 0.0 2.0 0.00 0.00 0.00 67 1011.6
20260505061535 59 242 0.0 0.0 0.00 0.00 0.00 69 1011.4
20260505060053 60 242 0.0 0.0 0.00 0.00 0.00 68 1011.4
20260505054533 61 242 1.0 2.0 0.00 0.00 0.00 68 1011.5
20260505053037 61 237 0.0 2.0 0.00 0.00 0.00 67 1011.4
20260505051530 61 245 1.0 3.0 0.00 0.00 0.00 68 1011.3
20260505041529 60 246 0.0 1.0 0.00 0.00 0.00 67 1011.2
20260505040024 60 246 0.0 2.0 0.00 0.00 0.00 68 1011.2
20260505034522 63 244 1.0 3.0 0.00 0.00 0.00 61 1011.2
20260505033021 63 243 1.0 2.0 0.00 0.00 0.00 60 1011.3
20260505031520 63 243 0.0 2.0 0.00 0.00 0.00 58 1011.4
20260505030020 64 241 1.0 2.0 0.00 0.00 0.00 57 1011.3
20260505024520 64 241 1.0 3.0 0.00 0.00 0.00 56 1011.5
20260505023021 65 240 1.0 2.0 0.00 0.00 0.00 56 1011.5
20260505021519 66 236 1.0 3.0 0.00 0.00 0.00 55 1011.4
20260505020027 66 256 0.0 2.0 0.00 0.00 0.00 55 1011.4
20260505014531 67 223 0.0 3.0 0.00 0.00 0.00 54 1011.2
20260505013023 67 231 2.0 8.0 0.00 0.00 0.00 54 1011.3
20260505011520 68 221 0.0 5.0 0.00 0.00 0.00 53 1011.1
20260505010017 68 204 1.0 10.0 0.00 0.00 0.00 55 1011.0
20260505004516 68 235 1.0 3.0 0.00 0.00 0.00 56 1011.0
20260505003023 69 220 0.0 2.0 0.00 0.00 0.00 55 1010.7
20260505001515 70 233 1.0 6.0 0.00 0.00 0.00 55 1010.7
20260505000015 70 130 1.0 5.0 0.00 0.00 0.00 55 1010.8
20260504234514 71 233 0.0 3.0 0.00 0.00 0.00 52 1010.7
20260504233016 72 143 1.0 9.0 0.00 0.00 0.00 50 1010.6
20260504231517 73 238 2.0 5.0 0.00 0.00 0.00 48 1010.6
20260504230013 74 271 2.0 6.0 0.00 0.00 0.00 47 1010.4
20260504224517 74 102 1.0 6.0 0.00 0.00 0.00 48 1010.4
20260504223015 74 238 2.0 8.0 0.00 0.00 0.00 49 1010.5
20260504221509 74 145 1.0 4.0 0.00 0.00 0.00 52 1010.6
20260504220010 74 258 0.0 4.0 0.00 0.00 0.00 49 1010.7
20260504214507 74 214 2.0 4.0 0.00 0.00 0.00 49 1010.8
20260504213018 75 232 1.0 7.0 0.00 0.00 0.00 50 1010.8
20260504211513 75 284 1.0 4.0 0.00 0.00 0.00 44 1010.8